Time,TemperatureF,DewpointF,PressureIn,WindDirection,WindDirectionDegrees,WindSpeedMPH,WindSpeedGustMPH,Humidity,HourlyPrecipIn,Conditions,Clouds,dailyrainin,SoftwareType,DateUTC
2013-02-10 00:00:00,35.6,20.6,30.22,SSE,153,0.0,9.0,54,0.00,,,0.00,VWS V14.01,2013-02-10 05:00:00,
2013-02-10 00:02:00,35.5,19.6,30.22,SSE,153,0.0,9.0,52,0.00,,,0.00,VWS V14.01,2013-02-10 05:02:00,
2013-02-10 00:03:00,35.5,18.2,30.22,SSE,153,0.0,9.0,49,0.00,,,0.00,VWS V14.01,2013-02-10 05:03:00,
2013-02-10 00:08:00,35.5,19.2,30.22,SSE,153,1.0,9.0,51,0.00,,,0.00,VWS V14.01,2013-02-10 05:08:00,
2013-02-10 00:13:00,35.5,19.6,30.22,SSE,153,0.0,9.0,52,0.00,,,0.00,VWS V14.01,2013-02-10 05:13:00,
2013-02-10 00:18:00,35.5,19.6,30.21,SSE,153,0.0,9.0,52,0.00,,,0.00,VWS V14.01,2013-02-10 05:18:00,
2013-02-10 00:23:00,35.2,20.7,30.21,SSE,153,0.0,9.0,55,0.00,,,0.00,VWS V14.01,2013-02-10 05:23:00,
2013-02-10 00:28:00,35.0,22.9,30.21,SSE,153,0.0,9.0,61,0.00,,,0.00,VWS V14.01,2013-02-10 05:28:00,
2013-02-10 00:33:00,34.6,22.9,30.21,SSE,153,0.0,9.0,62,0.00,,,0.00,VWS V14.01,2013-02-10 05:33:00,
2013-02-10 00:38:00,34.1,23.2,30.21,SSE,153,0.0,9.0,64,0.00,,,0.00,VWS V14.01,2013-02-10 05:38:00,
2013-02-10 00:43:00,33.7,22.5,30.21,SSE,153,0.0,9.0,63,0.00,,,0.00,VWS V14.01,2013-02-10 05:43:00,
2013-02-10 00:48:00,33.5,22.3,30.21,SSE,153,0.0,9.0,63,0.00,,,0.00,VWS V14.01,2013-02-10 05:48:00,
2013-02-10 00:53:00,33.5,22.3,30.21,SSE,153,1.0,9.0,63,0.00,,,0.00,VWS V14.01,2013-02-10 05:53:00,
2013-02-10 00:58:00,33.7,20.1,30.21,SSE,153,0.0,9.0,57,0.00,,,0.00,VWS V14.01,2013-02-10 05:58:00,
2013-02-10 01:03:00,34.0,20.8,30.21,SSE,153,0.0,9.0,58,0.00,,,0.00,VWS V14.01,2013-02-10 06:03:00,
2013-02-10 01:08:00,34.0,22.4,30.21,SSE,153,0.0,9.0,62,0.00,,,0.00,VWS V14.01,2013-02-10 06:08:00,
2013-02-10 01:13:00,33.8,23.3,30.21,SSE,153,0.0,9.0,65,0.00,,,0.00,VWS V14.01,2013-02-10 06:13:00,
2013-02-10 01:19:00,33.7,22.8,30.20,SSE,153,0.0,9.0,64,0.00,,,0.00,VWS V14.01,2013-02-10 06:19:00,
2013-02-10 01:24:00,33.5,22.3,30.20,SSE,153,0.0,9.0,63,0.00,,,0.00,VWS V14.01,2013-02-10 06:24:00,
2013-02-10 01:29:00,33.5,23.0,30.20,SSE,153,0.0,9.0,65,0.00,,,0.00,VWS V14.01,2013-02-10 06:29:00,
2013-02-10 01:34:00,33.5,22.6,30.20,NNE,26,0.0,9.0,64,0.00,,,0.00,VWS V14.01,2013-02-10 06:34:00,
2013-02-10 01:39:00,33.7,22.1,30.20,NNE,26,0.0,9.0,62,0.00,,,0.00,VWS V14.01,2013-02-10 06:39:00,
2013-02-10 01:44:00,34.0,21.6,30.20,NNE,26,0.0,9.0,60,0.00,,,0.00,VWS V14.01,2013-02-10 06:44:00,
2013-02-10 01:49:00,34.3,23.4,30.20,NNE,26,0.0,9.0,64,0.00,,,0.00,VWS V14.01,2013-02-10 06:49:00,
2013-02-10 01:54:00,34.4,23.1,30.20,NNE,26,0.0,9.0,63,0.00,,,0.00,VWS V14.01,2013-02-10 06:54:00,
2013-02-10 01:59:00,34.6,22.9,30.20,NNW,338,0.0,9.0,62,0.00,,,0.00,VWS V14.01,2013-02-10 06:59:00,
2013-02-10 02:04:00,34.7,23.4,30.21,NNW,338,0.0,9.0,63,0.00,,,0.00,VWS V14.01,2013-02-10 07:04:00,
2013-02-10 02:09:00,34.9,22.0,30.21,NNW,338,0.0,9.0,59,0.00,,,0.00,VWS V14.01,2013-02-10 07:09:00,
2013-02-10 02:14:00,35.0,23.3,30.21,NNW,338,0.0,9.0,62,0.00,,,0.00,VWS V14.01,2013-02-10 07:14:00,
2013-02-10 02:19:00,35.2,23.5,30.20,NNW,338,0.0,9.0,62,0.00,,,0.00,VWS V14.01,2013-02-10 07:19:00,
2013-02-10 02:24:00,35.0,22.9,30.20,NNW,338,0.0,9.0,61,0.00,,,0.00,VWS V14.01,2013-02-10 07:24:00,
2013-02-10 02:29:00,35.2,21.9,30.20,NNW,338,0.0,9.0,58,0.00,,,0.00,VWS V14.01,2013-02-10 07:29:00,
2013-02-10 02:34:00,35.8,20.8,30.20,ENE,67,0.0,9.0,54,0.00,,,0.00,VWS V14.01,2013-02-10 07:34:00,
2013-02-10 02:39:00,36.0,23.5,30.20,North,351,0.0,9.0,60,0.00,,,0.00,VWS V14.01,2013-02-10 07:39:00,
2013-02-10 02:44:00,36.2,21.2,30.20,North,351,0.0,9.0,54,0.00,,,0.00,VWS V14.01,2013-02-10 07:44:00,
2013-02-10 02:49:00,36.5,21.5,30.20,NW,324,2.0,9.0,54,0.00,,,0.00,VWS V14.01,2013-02-10 07:49:00,
2013-02-10 02:54:00,36.9,20.0,30.20,NNW,344,2.0,9.0,50,0.00,,,0.00,VWS V14.01,2013-02-10 07:54:00,
2013-02-10 03:00:00,37.3,20.9,30.19,NNW,344,1.0,9.0,51,0.00,,,0.00,VWS V14.01,2013-02-10 08:00:00,
2013-02-10 03:05:00,37.5,21.9,30.19,NW,308,0.0,9.0,53,0.00,,,0.00,VWS V14.01,2013-02-10 08:05:00,
2013-02-10 03:10:00,37.6,22.9,30.19,NW,308,1.0,9.0,55,0.00,,,0.00,VWS V14.01,2013-02-10 08:10:00,
2013-02-10 03:15:00,37.9,20.0,30.18,NNW,338,4.0,9.0,48,0.00,,,0.00,VWS V14.01,2013-02-10 08:15:00,
2013-02-10 03:20:00,38.3,21.3,30.18,NW,325,0.0,9.0,50,0.00,,,0.00,VWS V14.01,2013-02-10 08:20:00,
2013-02-10 03:25:00,38.8,21.8,30.18,SE,140,2.0,9.0,50,0.00,,,0.00,VWS V14.01,2013-02-10 08:25:00,
2013-02-10 03:30:00,38.9,20.4,30.17,SSE,148,1.0,9.0,47,0.00,,,0.00,VWS V14.01,2013-02-10 08:30:00,
2013-02-10 03:35:00,39.6,19.5,30.17,NNE,28,0.0,9.0,44,0.00,,,0.00,VWS V14.01,2013-02-10 08:35:00,
2013-02-10 03:40:00,40.1,20.0,30.17,North,11,1.0,9.0,44,0.00,,,0.00,VWS V14.01,2013-02-10 08:40:00,
2013-02-10 03:45:00,40.2,21.6,30.17,SE,130,0.0,9.0,47,0.00,,,0.00,VWS V14.01,2013-02-10 08:45:00,
2013-02-10 03:50:00,39.8,20.2,30.17,North,350,0.0,9.0,45,0.00,,,0.00,VWS V14.01,2013-02-10 08:50:00,
2013-02-10 03:55:00,39.6,19.5,30.17,ENE,57,2.0,9.0,44,0.00,,,0.00,VWS V14.01,2013-02-10 08:55:00,
2013-02-10 04:00:00,39.6,21.5,30.17,NE,46,1.0,9.0,48,0.00,,,0.00,VWS V14.01,2013-02-10 09:00:00,
2013-02-10 04:05:00,39.6,21.0,30.17,NW,309,4.0,9.0,47,0.00,,,0.00,VWS V14.01,2013-02-10 09:05:00,
2013-02-10 04:10:00,39.9,22.3,30.17,WNW,298,1.0,9.0,49,0.00,,,0.00,VWS V14.01,2013-02-10 09:10:00,
2013-02-10 04:15:00,40.1,21.0,30.18,SSW,202,0.0,9.0,46,0.00,,,0.00,VWS V14.01,2013-02-10 09:15:00,
2013-02-10 04:20:00,40.2,21.1,30.18,West,259,2.0,9.0,46,0.00,,,0.00,VWS V14.01,2013-02-10 09:20:00,
2013-02-10 04:25:00,40.1,22.5,30.18,West,279,1.0,9.0,49,0.00,,,0.00,VWS V14.01,2013-02-10 09:25:00,
2013-02-10 04:31:00,39.9,22.3,30.17,West,279,0.0,9.0,49,0.00,,,0.00,VWS V14.01,2013-02-10 09:31:00,
2013-02-10 04:36:00,40.1,21.0,30.17,SE,126,1.0,9.0,46,0.00,,,0.00,VWS V14.01,2013-02-10 09:36:00,
2013-02-10 04:41:00,40.6,19.9,30.17,WSW,239,3.0,9.0,43,0.00,,,0.00,VWS V14.01,2013-02-10 09:41:00,
2013-02-10 04:46:00,40.6,21.5,30.17,SE,137,3.0,9.0,46,0.00,,,0.00,VWS V14.01,2013-02-10 09:46:00,
2013-02-10 04:51:00,40.5,21.4,30.17,NW,314,2.0,9.0,46,0.00,,,0.00,VWS V14.01,2013-02-10 09:51:00,
2013-02-10 04:56:00,40.3,20.1,30.17,West,278,0.0,9.0,44,0.00,,,0.00,VWS V14.01,2013-02-10 09:56:00,
2013-02-10 05:01:00,40.5,21.9,30.18,SW,228,5.0,9.0,47,0.00,,,0.00,VWS V14.01,2013-02-10 10:01:00,
2013-02-10 05:06:00,41.3,19.4,30.18,North,351,0.0,9.0,41,0.00,,,0.00,VWS V14.01,2013-02-10 10:06:00,
2013-02-10 05:11:00,41.5,19.0,30.18,North,355,0.0,9.0,40,0.00,,,0.00,VWS V14.01,2013-02-10 10:11:00,
2013-02-10 05:16:00,41.3,20.0,30.19,North,355,1.0,9.0,42,0.00,,,0.00,VWS V14.01,2013-02-10 10:16:00,
2013-02-10 05:21:00,41.3,20.5,30.19,SSW,196,2.0,9.0,43,0.00,,,0.00,VWS V14.01,2013-02-10 10:21:00,
2013-02-10 05:26:00,41.3,20.0,30.19,ESE,119,1.0,9.0,42,0.00,,,0.00,VWS V14.01,2013-02-10 10:26:00,
2013-02-10 05:31:00,41.2,19.9,30.19,NE,41,2.0,9.0,42,0.00,,,0.00,VWS V14.01,2013-02-10 10:31:00,
2013-02-10 05:36:00,40.9,22.2,30.19,SE,133,2.0,9.0,47,0.00,,,0.00,VWS V14.01,2013-02-10 10:36:00,
2013-02-10 05:41:00,41.1,20.3,30.19,SE,138,1.0,9.0,43,0.00,,,0.00,VWS V14.01,2013-02-10 10:41:00,
2013-02-10 05:46:00,41.2,18.7,30.19,ENE,76,0.0,9.0,40,0.00,,,0.00,VWS V14.01,2013-02-10 10:46:00,
2013-02-10 05:51:00,41.6,20.2,30.19,WSW,240,2.0,9.0,42,0.00,,,0.00,VWS V14.01,2013-02-10 10:51:00,
2013-02-10 05:56:00,41.5,22.3,30.19,South,173,0.0,9.0,46,0.00,,,0.00,VWS V14.01,2013-02-10 10:56:00,
2013-02-10 06:01:00,41.5,19.0,30.19,West,279,1.0,9.0,40,0.00,,,0.00,VWS V14.01,2013-02-10 11:01:00,
2013-02-10 06:06:00,41.6,19.1,30.19,WSW,240,0.0,9.0,40,0.00,,,0.00,VWS V14.01,2013-02-10 11:06:00,
2013-02-10 06:11:00,41.2,21.0,30.19,WNW,294,1.0,9.0,44,0.00,,,0.00,VWS V14.01,2013-02-10 11:11:00,
2013-02-10 06:17:00,41.2,18.1,30.22,ESE,115,0.0,9.0,39,0.00,,,0.00,VWS V14.01,2013-02-10 11:17:00,
2013-02-10 06:22:00,41.2,18.7,30.22,NW,323,0.0,9.0,40,0.00,,,0.00,VWS V14.01,2013-02-10 11:22:00,
2013-02-10 06:27:00,40.9,21.7,30.22,SE,134,1.0,9.0,46,0.00,,,0.00,VWS V14.01,2013-02-10 11:27:00,
2013-02-10 06:32:00,40.8,18.9,30.23,NW,309,2.0,9.0,41,0.00,,,0.00,VWS V14.01,2013-02-10 11:32:00,
2013-02-10 06:37:00,40.3,20.1,30.23,NW,309,0.0,9.0,44,0.00,,,0.00,VWS V14.01,2013-02-10 11:37:00,
2013-02-10 06:42:00,39.9,18.7,30.23,North,351,1.0,9.0,42,0.00,,,0.00,VWS V14.01,2013-02-10 11:42:00,
2013-02-10 06:47:00,40.1,18.3,30.23,West,277,0.0,9.0,41,0.00,,,0.00,VWS V14.01,2013-02-10 11:47:00,
2013-02-10 06:52:00,40.5,18.7,30.23,West,277,0.0,9.0,41,0.00,,,0.00,VWS V14.01,2013-02-10 11:52:00,
2013-02-10 06:57:00,40.3,21.7,30.23,SW,223,1.0,9.0,47,0.00,,,0.00,VWS V14.01,2013-02-10 11:57:00,
2013-02-10 07:02:00,40.1,21.5,30.24,SW,223,0.0,9.0,47,0.00,,,0.00,VWS V14.01,2013-02-10 12:02:00,
2013-02-10 07:07:00,39.9,20.3,30.24,SW,223,1.0,9.0,45,0.00,,,0.00,VWS V14.01,2013-02-10 12:07:00,
2013-02-10 07:12:00,39.9,19.8,30.24,NW,316,0.0,9.0,44,0.00,,,0.00,VWS V14.01,2013-02-10 12:12:00,
2013-02-10 07:17:00,39.9,20.3,30.25,NW,316,0.0,9.0,45,0.00,,,0.00,VWS V14.01,2013-02-10 12:17:00,
2013-02-10 07:22:00,39.6,21.5,30.25,NW,316,1.0,9.0,48,0.00,,,0.00,VWS V14.01,2013-02-10 12:22:00,
2013-02-10 07:27:00,39.5,20.5,30.25,SSW,196,2.0,9.0,46,0.00,,,0.00,VWS V14.01,2013-02-10 12:27:00,
2013-02-10 07:32:00,40.1,18.3,30.23,NNE,19,1.0,9.0,41,0.00,,,0.00,VWS V14.01,2013-02-10 12:32:00,
2013-02-10 07:37:00,40.6,18.8,30.23,NW,309,0.0,9.0,41,0.00,,,0.00,VWS V14.01,2013-02-10 12:37:00,
2013-02-10 07:42:00,41.1,19.8,30.23,North,360,1.0,9.0,42,0.00,,,0.00,VWS V14.01,2013-02-10 12:42:00,
2013-02-10 07:47:00,41.2,18.7,30.22,North,5,0.0,9.0,40,0.00,,,0.00,VWS V14.01,2013-02-10 12:47:00,
2013-02-10 07:53:00,41.2,18.1,30.22,West,275,4.0,9.0,39,0.00,,,0.00,VWS V14.01,2013-02-10 12:53:00,
2013-02-10 07:58:00,41.2,18.7,30.22,West,266,4.0,9.0,40,0.00,,,0.00,VWS V14.01,2013-02-10 12:58:00,
2013-02-10 08:03:00,41.5,19.0,30.24,SW,217,0.0,9.0,40,0.00,,,0.00,VWS V14.01,2013-02-10 13:03:00,
2013-02-10 08:08:00,41.5,19.0,30.24,West,281,1.0,9.0,40,0.00,,,0.00,VWS V14.01,2013-02-10 13:08:00,
2013-02-10 08:13:00,41.5,19.0,30.24,West,267,3.0,9.0,40,0.00,,,0.00,VWS V14.01,2013-02-10 13:13:00,
2013-02-10 08:18:00,41.5,19.6,30.23,NW,305,1.0,9.0,41,0.00,,,0.00,VWS V14.01,2013-02-10 13:18:00,
2013-02-10 08:23:00,41.5,19.6,30.23,South,180,1.0,9.0,41,0.00,,,0.00,VWS V14.01,2013-02-10 13:23:00,
2013-02-10 08:28:00,41.5,19.6,30.23,SSE,155,0.0,9.0,41,0.00,,,0.00,VWS V14.01,2013-02-10 13:28:00,
2013-02-10 08:33:00,41.6,22.9,30.23,SSE,155,0.0,9.0,47,0.00,,,0.00,VWS V14.01,2013-02-10 13:33:00,
2013-02-10 08:38:00,41.5,20.7,30.23,WNW,291,2.0,9.0,43,0.00,,,0.00,VWS V14.01,2013-02-10 13:38:00,
2013-02-10 08:43:00,41.6,18.5,30.23,WNW,296,1.0,9.0,39,0.00,,,0.00,VWS V14.01,2013-02-10 13:43:00,
2013-02-10 08:48:00,41.9,18.8,30.24,West,276,0.0,9.0,39,0.00,,,0.00,VWS V14.01,2013-02-10 13:48:00,
2013-02-10 08:53:00,42.3,18.5,30.24,NNW,327,1.0,9.0,38,0.00,,,0.00,VWS V14.01,2013-02-10 13:53:00,
2013-02-10 08:58:00,42.6,22.2,30.24,NNW,327,0.0,9.0,44,0.00,,,0.00,VWS V14.01,2013-02-10 13:58:00,
2013-02-10 09:03:00,42.6,20.6,30.24,WSW,248,1.0,9.0,41,0.00,,,0.00,VWS V14.01,2013-02-10 14:03:00,
2013-02-10 09:09:00,43.1,18.6,30.24,SW,226,2.0,9.0,37,0.00,,,0.00,VWS V14.01,2013-02-10 14:09:00,
2013-02-10 09:14:00,43.3,18.8,30.24,WNW,284,0.0,9.0,37,0.00,,,0.00,VWS V14.01,2013-02-10 14:14:00,
2013-02-10 09:19:00,43.6,19.1,30.24,SW,234,6.0,9.0,37,0.00,,,0.00,VWS V14.01,2013-02-10 14:19:00,
2013-02-10 09:24:00,43.8,18.0,30.24,SW,233,1.0,9.0,35,0.00,,,0.00,VWS V14.01,2013-02-10 14:24:00,
2013-02-10 09:29:00,44.2,18.3,30.24,North,5,2.0,9.0,35,0.00,,,0.00,VWS V14.01,2013-02-10 14:29:00,
2013-02-10 09:34:00,44.6,18.0,30.23,WNW,298,1.0,9.0,34,0.00,,,0.00,VWS V14.01,2013-02-10 14:34:00,
2013-02-10 09:39:00,45.1,18.4,30.23,WNW,297,1.0,9.0,34,0.00,,,0.00,VWS V14.01,2013-02-10 14:39:00,
2013-02-10 09:44:00,45.5,18.1,30.23,West,262,0.0,9.0,33,0.00,,,0.00,VWS V14.01,2013-02-10 14:44:00,
2013-02-10 09:49:00,45.8,18.4,30.21,South,175,0.0,9.0,33,0.00,,,0.00,VWS V14.01,2013-02-10 14:49:00,
2013-02-10 09:54:00,46.0,19.9,30.21,South,184,0.0,9.0,35,0.00,,,0.00,VWS V14.01,2013-02-10 14:54:00,
2013-02-10 09:59:00,46.1,20.0,30.21,West,278,0.0,9.0,35,0.00,,,0.00,VWS V14.01,2013-02-10 14:59:00,
2013-02-10 10:05:00,46.4,20.2,30.21,WSW,256,3.0,9.0,35,0.00,,,0.00,VWS V14.01,2013-02-10 15:05:00,
2013-02-10 10:10:00,46.5,20.3,30.21,West,270,1.0,9.0,35,0.00,,,0.00,VWS V14.01,2013-02-10 15:10:00,
2013-02-10 10:15:00,46.8,20.6,30.22,WSW,240,0.0,9.0,35,0.00,,,0.00,VWS V14.01,2013-02-10 15:15:00,
2013-02-10 10:20:00,47.1,22.8,30.22,NW,323,0.0,9.0,38,0.00,,,0.00,VWS V14.01,2013-02-10 15:20:00,
2013-02-10 10:25:00,47.4,20.5,30.22,NNW,328,4.0,9.0,34,0.00,,,0.00,VWS V14.01,2013-02-10 15:25:00,
2013-02-10 10:30:00,47.9,20.9,30.21,North,350,0.0,9.0,34,0.00,,,0.00,VWS V14.01,2013-02-10 15:30:00,
2013-02-10 10:35:00,48.5,20.7,30.21,West,271,0.0,9.0,33,0.00,,,0.00,VWS V14.01,2013-02-10 15:35:00,
2013-02-10 10:40:00,48.8,19.5,30.21,WSW,244,5.0,9.0,31,0.00,,,0.00,VWS V14.01,2013-02-10 15:40:00,
2013-02-10 10:45:00,49.2,19.9,30.21,SW,231,6.0,9.0,31,0.00,,,0.00,VWS V14.01,2013-02-10 15:45:00,
2013-02-10 10:50:00,49.5,20.1,30.21,ESE,117,1.0,9.0,31,0.00,,,0.00,VWS V14.01,2013-02-10 15:50:00,
2013-02-10 10:55:00,50.1,19.9,30.21,SW,217,2.0,9.0,30,0.00,,,0.00,VWS V14.01,2013-02-10 15:55:00,
2013-02-10 11:00:00,50.5,20.2,30.19,WSW,257,6.0,9.0,30,0.00,,,0.00,VWS V14.01,2013-02-10 16:00:00,
2013-02-10 11:05:00,50.8,19.7,30.19,SSW,194,7.0,9.0,29,0.00,,,0.00,VWS V14.01,2013-02-10 16:05:00,
2013-02-10 11:11:00,50.8,18.0,30.19,SSW,213,5.0,9.0,27,0.00,,,0.00,VWS V14.01,2013-02-10 16:11:00,
2013-02-10 11:16:00,51.3,17.6,30.19,NW,305,2.0,9.0,26,0.00,,,0.00,VWS V14.01,2013-02-10 16:16:00,
2013-02-10 11:21:00,51.9,17.2,30.19,WNW,286,3.0,9.0,25,0.00,,,0.00,VWS V14.01,2013-02-10 16:21:00,
2013-02-10 11:26:00,52.5,15.8,30.19,ENE,71,4.0,9.0,23,0.00,,,0.00,VWS V14.01,2013-02-10 16:26:00,
2013-02-10 11:31:00,52.6,14.9,30.18,NNW,327,1.0,9.0,22,0.00,,,0.00,VWS V14.01,2013-02-10 16:31:00,
2013-02-10 11:36:00,53.1,15.3,30.18,NNW,343,5.0,9.0,22,0.00,,,0.00,VWS V14.01,2013-02-10 16:36:00,
2013-02-10 11:41:00,53.3,14.4,30.18,NE,46,2.0,9.0,21,0.00,,,0.00,VWS V14.01,2013-02-10 16:41:00,
2013-02-10 11:46:00,53.5,13.4,30.16,North,5,1.0,9.0,20,0.00,,,0.00,VWS V14.01,2013-02-10 16:46:00,
2013-02-10 11:51:00,53.8,14.8,30.16,NNW,346,4.0,9.0,21,0.00,,,0.00,VWS V14.01,2013-02-10 16:51:00,
2013-02-10 11:56:00,53.9,13.8,30.16,NNE,20,9.0,9.0,20,0.00,,,0.00,VWS V14.01,2013-02-10 16:56:00,
2013-02-10 12:02:00,53.9,13.8,30.15,WNW,302,3.0,9.0,20,0.00,,,0.00,VWS V14.01,2013-02-10 17:02:00,
2013-02-10 12:07:00,54.1,15.1,30.15,NNW,343,2.0,9.0,21,0.00,,,0.00,VWS V14.01,2013-02-10 17:07:00,
2013-02-10 12:12:00,54.4,15.3,30.15,SSE,157,3.0,9.0,21,0.00,,,0.00,VWS V14.01,2013-02-10 17:12:00,
2013-02-10 12:17:00,54.4,15.3,30.15,NNE,14,7.0,9.0,21,0.00,,,0.00,VWS V14.01,2013-02-10 17:17:00,
2013-02-10 12:22:00,54.7,14.4,30.15,ESE,120,3.0,9.0,20,0.00,,,0.00,VWS V14.01,2013-02-10 17:22:00,
2013-02-10 12:27:00,54.4,14.2,30.15,North,5,6.0,9.0,20,0.00,,,0.00,VWS V14.01,2013-02-10 17:27:00,
2013-02-10 12:32:00,54.2,14.0,30.14,NNW,339,3.0,9.0,20,0.00,,,0.00,VWS V14.01,2013-02-10 17:32:00,
2013-02-10 12:37:00,54.2,14.0,30.14,NNE,19,3.0,9.0,20,0.00,,,0.00,VWS V14.01,2013-02-10 17:37:00,
2013-02-10 12:42:00,54.2,14.0,30.14,North,10,4.0,9.0,20,0.00,,,0.00,VWS V14.01,2013-02-10 17:42:00,
2013-02-10 12:47:00,54.2,14.0,30.14,ESE,108,0.0,9.0,20,0.00,,,0.00,VWS V14.01,2013-02-10 17:47:00,
2013-02-10 12:52:00,54.5,15.4,30.14,ESE,120,3.0,9.0,21,0.00,,,0.00,VWS V14.01,2013-02-10 17:52:00,
2013-02-10 12:58:00,54.5,15.4,30.14,SSW,213,2.0,9.0,21,0.00,,,0.00,VWS V14.01,2013-02-10 17:58:00,
2013-02-10 13:03:00,54.7,15.6,30.12,West,276,3.0,9.0,21,0.00,,,0.00,VWS V14.01,2013-02-10 18:03:00,
2013-02-10 13:08:00,54.8,15.6,30.12,SSW,213,3.0,9.0,21,0.00,,,0.00,VWS V14.01,2013-02-10 18:08:00,
2013-02-10 13:13:00,55.3,17.1,30.12,SSW,211,3.0,9.0,22,0.00,,,0.00,VWS V14.01,2013-02-10 18:13:00,
2013-02-10 13:18:00,55.7,15.3,30.10,West,272,0.0,9.0,20,0.00,,,0.00,VWS V14.01,2013-02-10 18:18:00,
2013-02-10 13:23:00,56.0,16.6,30.10,NE,48,6.0,9.0,21,0.00,,,0.00,VWS V14.01,2013-02-10 18:23:00,
2013-02-10 13:28:00,56.6,17.1,30.10,North,351,6.0,9.0,21,0.00,,,0.00,VWS V14.01,2013-02-10 18:28:00,
2013-02-10 13:33:00,57.0,16.4,30.08,WNW,289,8.0,9.0,20,0.00,,,0.00,VWS V14.01,2013-02-10 18:33:00,
2013-02-10 13:38:00,57.3,16.6,30.08,WSW,240,9.0,9.0,20,0.00,,,0.00,VWS V14.01,2013-02-10 18:38:00,
2013-02-10 13:43:00,57.5,16.8,30.08,SE,134,4.0,9.0,20,0.00,,,0.00,VWS V14.01,2013-02-10 18:43:00,
2013-02-10 13:49:00,57.6,16.9,30.06,SSE,148,4.0,9.0,20,0.00,,,0.00,VWS V14.01,2013-02-10 18:49:00,
2013-02-10 13:54:00,57.6,16.9,30.06,West,266,6.0,9.0,20,0.00,,,0.00,VWS V14.01,2013-02-10 18:54:00,
2013-02-10 13:59:00,57.6,16.9,30.06,North,351,3.0,9.0,20,0.00,,,0.00,VWS V14.01,2013-02-10 18:59:00,
2013-02-10 14:04:00,57.6,16.9,30.05,West,262,2.0,9.0,20,0.00,,,0.00,VWS V14.01,2013-02-10 19:04:00,
2013-02-10 14:09:00,57.6,16.9,30.05,ESE,121,6.0,9.0,20,0.00,,,0.00,VWS V14.01,2013-02-10 19:09:00,
2013-02-10 14:14:00,57.3,16.6,30.05,West,279,3.0,9.0,20,0.00,,,0.00,VWS V14.01,2013-02-10 19:14:00,
2013-02-10 14:19:00,57.2,16.5,30.06,West,271,1.0,9.0,20,0.00,,,0.00,VWS V14.01,2013-02-10 19:19:00,
2013-02-10 14:24:00,57.0,16.4,30.06,NW,305,1.0,9.0,20,0.00,,,0.00,VWS V14.01,2013-02-10 19:24:00,
2013-02-10 14:29:00,57.0,16.4,30.06,NNW,335,4.0,9.0,20,0.00,,,0.00,VWS V14.01,2013-02-10 19:29:00,
2013-02-10 14:34:00,57.3,16.6,30.06,ENE,75,3.0,9.0,20,0.00,,,0.00,VWS V14.01,2013-02-10 19:34:00,
2013-02-10 14:39:00,57.5,16.8,30.06,SW,216,1.0,9.0,20,0.00,,,0.00,VWS V14.01,2013-02-10 19:39:00,
2013-02-10 14:44:00,57.3,17.7,30.06,ENE,59,5.0,9.0,21,0.00,,,0.00,VWS V14.01,2013-02-10 19:44:00,
2013-02-10 14:50:00,57.0,18.5,30.04,NW,311,12.0,12.0,22,0.00,,,0.00,VWS V14.01,2013-02-10 19:50:00,
2013-02-10 14:55:00,56.7,18.3,30.04,SW,217,4.0,9.0,22,0.00,,,0.00,VWS V14.01,2013-02-10 19:55:00,
2013-02-10 15:00:00,56.6,17.1,30.04,North,360,2.0,9.0,21,0.00,,,0.00,VWS V14.01,2013-02-10 20:00:00,
2013-02-10 15:05:00,56.5,17.1,30.04,ESE,115,2.0,9.0,21,0.00,,,0.00,VWS V14.01,2013-02-10 20:05:00,
2013-02-10 15:10:00,56.3,16.9,30.04,NE,44,1.0,9.0,21,0.00,,,0.00,VWS V14.01,2013-02-10 20:10:00,
2013-02-10 15:15:00,56.2,17.9,30.03,SW,219,2.0,9.0,22,0.00,,,0.00,VWS V14.01,2013-02-10 20:15:00,
2013-02-10 15:20:00,55.9,17.6,30.03,East,99,4.0,9.0,22,0.00,,,0.00,VWS V14.01,2013-02-10 20:20:00,
2013-02-10 15:25:00,55.7,17.5,30.03,NNW,331,6.0,9.0,22,0.00,,,0.00,VWS V14.01,2013-02-10 20:25:00,
2013-02-10 15:30:00,56.0,16.6,30.02,SSW,208,0.0,9.0,21,0.00,,,0.00,VWS V14.01,2013-02-10 20:30:00,
2013-02-10 15:35:00,56.2,16.8,30.02,NNE,18,0.0,9.0,21,0.00,,,0.00,VWS V14.01,2013-02-10 20:35:00,
2013-02-10 15:40:00,56.3,16.9,30.02,East,98,0.0,9.0,21,0.00,,,0.00,VWS V14.01,2013-02-10 20:40:00,
2013-02-10 15:46:00,56.2,17.9,30.02,East,80,1.0,9.0,22,0.00,,,0.00,VWS V14.01,2013-02-10 20:46:00,
2013-02-10 15:51:00,56.0,17.7,30.02,West,268,0.0,9.0,22,0.00,,,0.00,VWS V14.01,2013-02-10 20:51:00,
2013-02-10 15:56:00,55.7,19.5,30.02,WSW,248,5.0,9.0,24,0.00,,,0.00,VWS V14.01,2013-02-10 20:56:00,
2013-02-10 16:01:00,55.6,18.4,30.03,North,5,3.0,9.0,23,0.00,,,0.00,VWS V14.01,2013-02-10 21:01:00,
2013-02-10 16:06:00,55.4,18.2,30.03,NW,322,3.0,9.0,23,0.00,,,0.00,VWS V14.01,2013-02-10 21:06:00,
2013-02-10 16:11:00,55.3,18.1,30.03,West,271,0.0,9.0,23,0.00,,,0.00,VWS V14.01,2013-02-10 21:11:00,
2013-02-10 16:16:00,55.1,19.0,30.04,NNW,336,2.0,9.0,24,0.00,,,0.00,VWS V14.01,2013-02-10 21:16:00,
2013-02-10 16:21:00,55.0,18.9,30.04,NNE,24,1.0,9.0,24,0.00,,,0.00,VWS V14.01,2013-02-10 21:21:00,
2013-02-10 16:26:00,54.8,17.7,30.04,North,5,0.0,9.0,23,0.00,,,0.00,VWS V14.01,2013-02-10 21:26:00,
2013-02-10 16:31:00,54.7,16.6,30.04,WSW,245,1.0,9.0,22,0.00,,,0.00,VWS V14.01,2013-02-10 21:31:00,
2013-02-10 16:36:00,54.7,16.6,30.04,WNW,288,4.0,9.0,22,0.00,,,0.00,VWS V14.01,2013-02-10 21:36:00,
2013-02-10 16:41:00,54.5,17.5,30.04,West,270,0.0,9.0,23,0.00,,,0.00,VWS V14.01,2013-02-10 21:41:00,
2013-02-10 16:47:00,54.5,18.5,30.04,South,185,0.0,9.0,24,0.00,,,0.00,VWS V14.01,2013-02-10 21:47:00,
2013-02-10 16:52:00,54.2,16.2,30.04,South,180,0.0,9.0,22,0.00,,,0.00,VWS V14.01,2013-02-10 21:52:00,
2013-02-10 16:57:00,54.2,16.2,30.04,NNW,344,1.0,9.0,22,0.00,,,0.00,VWS V14.01,2013-02-10 21:57:00,
2013-02-10 17:02:00,54.1,18.1,30.05,WSW,247,4.0,9.0,24,0.00,,,0.00,VWS V14.01,2013-02-10 22:02:00,
2013-02-10 17:07:00,53.9,18.9,30.05,West,279,6.0,9.0,25,0.00,,,0.00,VWS V14.01,2013-02-10 22:07:00,
2013-02-10 17:12:00,53.8,18.8,30.05,WSW,247,4.0,9.0,25,0.00,,,0.00,VWS V14.01,2013-02-10 22:12:00,
2013-02-10 17:17:00,53.6,19.6,30.05,West,262,2.0,9.0,26,0.00,,,0.00,VWS V14.01,2013-02-10 22:17:00,
2013-02-10 17:22:00,53.5,20.4,30.05,North,5,4.0,9.0,27,0.00,,,0.00,VWS V14.01,2013-02-10 22:22:00,
2013-02-10 17:27:00,53.1,26.9,30.05,SSW,213,1.0,9.0,36,0.00,,,0.00,VWS V14.01,2013-02-10 22:27:00,
2013-02-10 17:32:00,52.0,30.8,30.07,WNW,298,0.0,9.0,44,0.00,,,0.00,VWS V14.01,2013-02-10 22:32:00,
2013-02-10 17:37:00,50.4,32.5,30.07,WNW,301,1.0,9.0,50,0.00,,,0.00,VWS V14.01,2013-02-10 22:37:00,
2013-02-10 17:42:00,48.9,36.1,30.07,WNW,298,0.0,9.0,61,0.01,,,0.01,VWS V14.01,2013-02-10 22:42:00,
2013-02-10 17:48:00,47.9,38.6,30.08,NNW,348,2.0,9.0,70,0.01,,,0.01,VWS V14.01,2013-02-10 22:48:00,
2013-02-10 17:53:00,47.1,39.2,30.08,NNW,348,1.0,9.0,74,0.01,,,0.01,VWS V14.01,2013-02-10 22:53:00,
2013-02-10 17:58:00,45.8,39.0,30.08,NNW,348,0.0,9.0,77,0.02,,,0.02,VWS V14.01,2013-02-10 22:58:00,
2013-02-10 18:03:00,45.2,39.7,30.09,West,262,0.0,9.0,81,0.02,,,0.02,VWS V14.01,2013-02-10 23:03:00,
2013-02-10 18:08:00,44.8,39.7,30.09,NNW,334,4.0,9.0,82,0.03,,,0.03,VWS V14.01,2013-02-10 23:08:00,
2013-02-10 18:13:00,44.3,39.8,30.09,NNW,335,1.0,9.0,84,0.03,,,0.03,VWS V14.01,2013-02-10 23:13:00,
2013-02-10 18:18:00,44.1,40.2,30.10,NNW,335,0.0,9.0,86,0.04,,,0.04,VWS V14.01,2013-02-10 23:18:00,
2013-02-10 18:23:00,43.9,40.3,30.10,NW,307,5.0,9.0,87,0.04,,,0.04,VWS V14.01,2013-02-10 23:23:00,
2013-02-10 18:28:00,43.8,40.2,30.10,WNW,290,1.0,9.0,87,0.05,,,0.05,VWS V14.01,2013-02-10 23:28:00,
2013-02-10 18:33:00,43.6,39.7,30.09,WNW,289,1.0,9.0,86,0.05,,,0.05,VWS V14.01,2013-02-10 23:33:00,
2013-02-10 18:38:00,43.5,39.0,30.09,NNW,333,2.0,9.0,84,0.06,,,0.06,VWS V14.01,2013-02-10 23:38:00,
2013-02-10 18:43:00,43.3,39.4,30.09,WNW,301,1.0,9.0,86,0.07,,,0.07,VWS V14.01,2013-02-10 23:43:00,
2013-02-10 18:49:00,43.1,39.2,30.10,WSW,246,0.0,9.0,86,0.06,,,0.07,VWS V14.01,2013-02-10 23:49:00,
2013-02-10 18:54:00,42.8,38.9,30.10,SW,230,2.0,9.0,86,0.07,,,0.08,VWS V14.01,2013-02-10 23:54:00,
2013-02-10 18:59:00,42.3,38.4,30.10,WNW,284,12.0,12.0,86,0.06,,,0.08,VWS V14.01,2013-02-10 23:59:00,
2013-02-10 19:04:00,42.2,38.6,30.09,ESE,111,2.0,9.0,87,0.07,,,0.09,VWS V14.01,2013-02-11 00:04:00,
2013-02-10 19:09:00,41.9,38.3,30.09,WSW,249,2.0,9.0,87,0.08,,,0.10,VWS V14.01,2013-02-11 00:09:00,
2013-02-10 19:14:00,41.8,38.5,30.09,SE,134,2.0,9.0,88,0.07,,,0.10,VWS V14.01,2013-02-11 00:14:00,
2013-02-10 19:19:00,41.6,38.3,30.08,WNW,297,1.0,9.0,88,0.07,,,0.11,VWS V14.01,2013-02-11 00:19:00,
2013-02-10 19:24:00,41.5,38.5,30.08,West,279,2.0,9.0,89,0.08,,,0.12,VWS V14.01,2013-02-11 00:24:00,
2013-02-10 19:29:00,41.5,38.8,30.08,WNW,294,6.0,9.0,90,0.07,,,0.12,VWS V14.01,2013-02-11 00:29:00,
2013-02-10 19:34:00,41.3,38.6,30.08,West,261,2.0,9.0,90,0.07,,,0.12,VWS V14.01,2013-02-11 00:34:00,
2013-02-10 19:39:00,41.3,38.9,30.08,WNW,298,0.0,9.0,91,0.07,,,0.13,VWS V14.01,2013-02-11 00:39:00,
2013-02-10 19:44:00,41.2,38.8,30.08,West,271,3.0,9.0,91,0.07,,,0.13,VWS V14.01,2013-02-11 00:44:00,
2013-02-10 19:49:00,41.2,39.1,30.00,ESE,111,3.0,9.0,92,0.06,,,0.13,VWS V14.01,2013-02-11 00:49:00,
2013-02-10 19:54:00,41.2,39.1,30.00,South,178,2.0,9.0,92,0.06,,,0.13,VWS V14.01,2013-02-11 00:54:00,
2013-02-10 19:59:00,41.3,39.2,30.00,SSE,150,1.0,9.0,92,0.05,,,0.13,VWS V14.01,2013-02-11 00:59:00,
2013-02-10 20:04:00,41.5,39.3,30.05,WSW,240,3.0,9.0,92,0.04,,,0.13,VWS V14.01,2013-02-11 01:04:00,
2013-02-10 20:09:00,41.8,39.4,30.05,WSW,251,3.0,9.0,91,0.04,,,0.13,VWS V14.01,2013-02-11 01:09:00,
2013-02-10 20:15:00,41.9,39.2,30.00,West,276,5.0,9.0,90,0.03,,,0.13,VWS V14.01,2013-02-11 01:15:00,
2013-02-10 20:20:00,42.1,39.4,30.00,NNW,331,3.0,9.0,90,0.03,,,0.13,VWS V14.01,2013-02-11 01:20:00,
2013-02-10 20:25:00,42.2,39.5,30.00,SE,124,0.0,9.0,90,0.02,,,0.13,VWS V14.01,2013-02-11 01:25:00,
2013-02-10 20:30:00,42.3,39.6,30.03,SSW,205,0.0,9.0,90,0.01,,,0.13,VWS V14.01,2013-02-11 01:30:00,
2013-02-10 20:35:00,42.5,39.5,30.03,NW,313,2.0,9.0,89,0.01,,,0.13,VWS V14.01,2013-02-11 01:35:00,
2013-02-10 20:40:00,42.8,39.8,30.03,WSW,252,3.0,9.0,89,0.01,,,0.13,VWS V14.01,2013-02-11 01:40:00,
2013-02-10 20:45:00,42.9,39.6,30.03,NW,311,4.0,9.0,88,0.00,,,0.13,VWS V14.01,2013-02-11 01:45:00,
2013-02-10 20:50:00,42.9,39.9,30.03,West,265,4.0,9.0,89,0.00,,,0.13,VWS V14.01,2013-02-11 01:50:00,
2013-02-10 20:55:00,42.9,40.2,30.03,WNW,284,0.0,9.0,90,0.00,,,0.13,VWS V14.01,2013-02-11 01:55:00,
2013-02-10 21:00:00,42.8,40.4,30.02,SSE,167,0.0,9.0,91,0.00,,,0.13,VWS V14.01,2013-02-11 02:00:00,
2013-02-10 21:05:00,42.8,40.4,30.02,NNW,330,0.0,9.0,91,0.00,,,0.13,VWS V14.01,2013-02-11 02:05:00,
2013-02-10 21:10:00,42.8,40.4,30.02,NW,311,0.0,9.0,91,0.00,,,0.13,VWS V14.01,2013-02-11 02:10:00,
2013-02-10 21:15:00,42.8,40.4,30.00,NW,311,0.0,9.0,91,0.00,,,0.13,VWS V14.01,2013-02-11 02:15:00,
2013-02-10 21:20:00,42.8,40.4,30.00,NW,311,0.0,9.0,91,0.00,,,0.13,VWS V14.01,2013-02-11 02:20:00,
2013-02-10 21:25:00,42.8,40.6,30.00,WNW,297,3.0,9.0,92,0.00,,,0.13,VWS V14.01,2013-02-11 02:25:00,
2013-02-10 21:30:00,42.8,40.6,30.00,WNW,295,0.0,9.0,92,0.00,,,0.13,VWS V14.01,2013-02-11 02:30:00,
2013-02-10 21:35:00,42.6,40.4,30.00,WNW,295,0.0,9.0,92,0.00,,,0.13,VWS V14.01,2013-02-11 02:35:00,
2013-02-10 21:40:00,42.6,40.4,30.00,WNW,295,0.0,9.0,92,0.00,,,0.13,VWS V14.01,2013-02-11 02:40:00,
2013-02-10 21:45:00,42.5,40.3,30.00,WNW,295,0.0,9.0,92,0.00,,,0.13,VWS V14.01,2013-02-11 02:45:00,
2013-02-10 21:50:00,42.3,40.4,30.00,WNW,295,1.0,9.0,93,0.00,,,0.13,VWS V14.01,2013-02-11 02:50:00,
2013-02-10 21:55:00,42.3,40.4,30.00,WNW,295,0.0,9.0,93,0.00,,,0.13,VWS V14.01,2013-02-11 02:55:00,
2013-02-10 22:00:00,42.2,40.3,29.98,WNW,295,0.0,9.0,93,0.00,,,0.13,VWS V14.01,2013-02-11 03:00:00,
2013-02-10 22:06:00,42.2,40.6,29.98,WNW,295,0.0,9.0,94,0.00,,,0.13,VWS V14.01,2013-02-11 03:06:00,
2013-02-10 22:11:00,42.3,40.7,29.98,WNW,295,0.0,9.0,94,0.00,,,0.13,VWS V14.01,2013-02-11 03:11:00,
2013-02-10 22:16:00,42.3,40.7,29.97,WNW,295,0.0,9.0,94,0.00,,,0.13,VWS V14.01,2013-02-11 03:16:00,
2013-02-10 22:21:00,42.3,40.7,29.97,WNW,295,0.0,9.0,94,0.00,,,0.13,VWS V14.01,2013-02-11 03:21:00,
2013-02-10 22:26:00,42.5,40.9,29.97,WNW,295,0.0,9.0,94,0.00,,,0.13,VWS V14.01,2013-02-11 03:26:00,
2013-02-10 22:31:00,42.6,41.3,29.96,WNW,295,0.0,9.0,95,0.00,,,0.13,VWS V14.01,2013-02-11 03:31:00,
2013-02-10 22:36:00,42.8,41.5,29.96,WNW,295,0.0,9.0,95,0.00,,,0.13,VWS V14.01,2013-02-11 03:36:00,
2013-02-10 22:41:00,42.8,41.5,29.96,WNW,295,0.0,9.0,95,0.00,,,0.13,VWS V14.01,2013-02-11 03:41:00,
2013-02-10 22:47:00,42.8,41.5,29.95,WNW,295,0.0,9.0,95,0.00,,,0.13,VWS V14.01,2013-02-11 03:47:00,
2013-02-10 22:52:00,42.8,41.5,29.95,WNW,295,0.0,9.0,95,0.00,,,0.13,VWS V14.01,2013-02-11 03:52:00,
2013-02-10 22:57:00,42.8,41.5,29.95,WNW,295,0.0,9.0,95,0.00,,,0.13,VWS V14.01,2013-02-11 03:57:00,
2013-02-10 23:02:00,42.8,41.5,29.96,WNW,295,0.0,9.0,95,0.00,,,0.13,VWS V14.01,2013-02-11 04:02:00,
2013-02-10 23:07:00,42.8,41.5,29.96,WNW,295,0.0,9.0,95,0.00,,,0.13,VWS V14.01,2013-02-11 04:07:00,
2013-02-10 23:12:00,42.8,41.5,29.96,WNW,295,0.0,9.0,95,0.00,,,0.13,VWS V14.01,2013-02-11 04:12:00,
2013-02-10 23:17:00,42.8,41.5,29.95,WNW,295,1.0,9.0,95,0.00,,,0.13,VWS V14.01,2013-02-11 04:17:00,
2013-02-10 23:22:00,42.8,41.5,29.95,WNW,295,0.0,9.0,95,0.00,,,0.13,VWS V14.01,2013-02-11 04:22:00,
2013-02-10 23:27:00,42.8,41.5,29.95,WNW,295,0.0,9.0,95,0.00,,,0.13,VWS V14.01,2013-02-11 04:27:00,
2013-02-10 23:32:00,42.6,41.3,29.94,WNW,295,0.0,9.0,95,0.00,,,0.13,VWS V14.01,2013-02-11 04:32:00,
2013-02-10 23:37:00,42.6,41.3,29.94,WNW,295,0.0,9.0,95,0.00,,,0.13,VWS V14.01,2013-02-11 04:37:00,
2013-02-10 23:42:00,42.8,41.5,29.94,WNW,295,0.0,9.0,95,0.00,,,0.13,VWS V14.01,2013-02-11 04:42:00,
2013-02-10 23:47:00,42.8,41.5,29.94,WNW,295,0.0,9.0,95,0.00,,,0.13,VWS V14.01,2013-02-11 04:47:00,
2013-02-10 23:52:00,42.8,41.5,29.94,WNW,295,0.0,9.0,95,0.00,,,0.13,VWS V14.01,2013-02-11 04:52:00,
2013-02-10 23:57:00,42.8,41.5,29.94,WNW,295,0.0,9.0,95,0.00,,,0.13,VWS V14.01,2013-02-11 04:57:00,